Weather History for KDVP - January, 2014

Change the Weather History Date:

Tuesday, January 21, 2014

  Actual Average (KOTG) Record (KOTG)
Temperature  
Mean Temperature -1 °F -  
Max Temperature 12 °F 21 °F 48 °F (2002)
Min Temperature -14 °F 6 °F -26 °F (1984)
Degree Days  
Heating Degree Days 66    
Moisture  
Dew Point -9 °F    
Average Humidity 72    
Maximum Humidity 85    
Minimum Humidity 65    
Precipitation  
Precipitation 0.00 in - - ()
Sea Level Pressure  
Sea Level Pressure 30.19 in    
Wind  
Wind Speed 11 mph (SW)    
Max Wind Speed 18 mph    
Max Gust Speed 25 mph    
Visibility 9 miles    
Events      
Averages and records for this station are not official NWS values.
T = Trace of Precipitation, MM = Missing Value Source: NWS Daily Summary

Daily Weather History Graph

Daily Weather History Graph

Search for Another Location

Airport or City:

Trip Planner

Search our weather history database for the weather conditions in past years. The results will help you decide how hot, cold, wet, or windy it might be!

Date:

Astronomy

Jan. 21, 2014 Rise Set
Actual Time 7:50 AM CST 5:18 PM CST
Civil Twilight 7:19 AM CST 5:50 PM CST
Nautical Twilight 6:43 AM CST 6:25 PM CST
Astronomical Twilight 6:09 AM CST 6:59 PM CST
Moon 11:05 PM CST (1/21) 10:08 AM CST (1/21)
Length of Visible Light 10h 31m
Length of Day
9h 27m
Waning Gibbous, 74% of the Moon is Illuminated
Jan 21
Waning Gibbous
Jan 23
Last Quarter
Jan 30
New
Feb 6
First Quarter
Feb 14
Full

Hourly Weather History & Observations

Time (CST) Temp. Windchill Dew Point Humidity Pressure Visibility Wind Dir Wind Speed Gust Speed Precip Events Conditions
12:25 AM -11.2 °F -32.1 °F -18.4 °F 70% 30.44 in 10.0 mi NNW 12.7 mph 18.4 mph N/A   Clear
12:45 AM -11.2 °F -32.9 °F -18.4 °F 70% 30.43 in 10.0 mi NNW 13.8 mph - N/A   Clear
1:05 AM -13.0 °F -35.2 °F -20.2 °F 70% 30.44 in 10.0 mi NNW 13.8 mph - N/A   Clear
1:25 AM -13.0 °F -33.4 °F -20.2 °F 70% 30.44 in 10.0 mi NNW 11.5 mph - N/A   Clear
1:45 AM -13.0 °F -34.3 °F -20.2 °F 70% 30.44 in 10.0 mi NNW 12.7 mph - N/A   Clear
2:05 AM -13.0 °F -33.4 °F -20.2 °F 70% 30.43 in 10.0 mi NNW 11.5 mph - N/A   Clear
2:25 AM -13.0 °F -31.3 °F -20.2 °F 70% 30.44 in 10.0 mi NW 9.2 mph - N/A   Clear
2:45 AM -13.0 °F -31.3 °F -20.2 °F 70% 30.44 in 10.0 mi NNW 9.2 mph - N/A   Clear
3:05 AM -13.0 °F -31.3 °F -20.2 °F 70% 30.43 in 10.0 mi North 9.2 mph - N/A   Clear
3:25 AM -13.0 °F -28.6 °F -20.2 °F 70% 30.43 in 10.0 mi NNW 6.9 mph - N/A   Clear
3:45 AM -13.0 °F -31.3 °F -20.2 °F 70% 30.42 in 10.0 mi North 9.2 mph - N/A   Clear
4:05 AM -13.0 °F -30.0 °F -20.2 °F 70% 30.42 in 10.0 mi NNW 8.1 mph - N/A   Clear
4:25 AM -13.0 °F -30.0 °F -20.2 °F 70% 30.40 in 10.0 mi North 8.1 mph - N/A   Clear
4:45 AM -13.0 °F -25.1 °F -20.2 °F 70% 30.39 in 10.0 mi NNW 4.6 mph - N/A   Clear
5:05 AM -14.8 °F -29.1 °F -20.2 °F 77% 30.39 in 10.0 mi WNW 5.8 mph - N/A   Clear
5:25 AM -13.0 °F -22.7 °F -20.2 °F 70% 30.38 in 10.0 mi West 3.5 mph - N/A   Clear
5:45 AM -13.0 °F - -18.4 °F 77% 30.37 in 10.0 mi Calm Calm - N/A   Clear
6:05 AM -13.0 °F -22.7 °F -18.4 °F 77% 30.36 in 10.0 mi West 3.5 mph - N/A   Clear
6:25 AM -13.0 °F -27.0 °F -18.4 °F 77% 30.36 in 10.0 mi West 5.8 mph - N/A   Clear
6:45 AM -13.0 °F -28.6 °F -18.4 °F 77% 30.35 in 10.0 mi SW 6.9 mph - N/A   Clear
7:05 AM -13.0 °F -27.0 °F -18.4 °F 77% 30.34 in 10.0 mi WSW 5.8 mph - N/A   Clear
7:25 AM -13.0 °F -28.6 °F -18.4 °F 77% 30.34 in 10.0 mi WSW 6.9 mph - N/A   Clear
7:45 AM -11.2 °F -27.8 °F -18.4 °F 70% 30.34 in 10.0 mi WSW 8.1 mph - N/A   Clear
8:05 AM -11.2 °F -27.8 °F -18.4 °F 70% 30.34 in 10.0 mi WSW 8.1 mph - N/A   Clear
8:25 AM -11.2 °F -29.0 °F -16.6 °F 77% 30.33 in 10.0 mi WSW 9.2 mph - N/A   Mostly Cloudy
8:45 AM -9.4 °F -26.8 °F -16.6 °F 71% 30.32 in 10.0 mi WSW 9.2 mph - N/A   Overcast
9:05 AM -9.4 °F -27.9 °F -16.6 °F 71% 30.31 in 10.0 mi SW 10.4 mph - N/A   Overcast
9:25 AM -7.6 °F -26.6 °F -14.8 °F 71% 30.30 in 10.0 mi SW 11.5 mph - N/A   Overcast
9:45 AM -7.6 °F -27.5 °F -14.8 °F 71% 30.29 in 10.0 mi SW 12.7 mph - N/A   Overcast
10:05 AM -5.8 °F -25.2 °F -14.8 °F 65% 30.28 in 10.0 mi SW 12.7 mph - N/A   Overcast
10:25 AM -5.8 °F -22.4 °F -14.8 °F 65% 30.26 in 10.0 mi SSW 9.2 mph - N/A   Overcast
10:45 AM -5.8 °F -24.4 °F -13.0 °F 71% 30.25 in 10.0 mi SSW 11.5 mph - N/A   Overcast
11:05 AM -4.0 °F -23.0 °F -13.0 °F 65% 30.23 in 10.0 mi SSW 12.7 mph - N/A   Overcast
11:25 AM -4.0 °F -22.1 °F -11.2 °F 71% 30.21 in 10.0 mi South 11.5 mph - N/A   Overcast
11:45 AM -2.2 °F -19.9 °F -11.2 °F 66% 30.19 in 10.0 mi South 11.5 mph - N/A   Overcast
12:05 PM -2.2 °F -21.5 °F -9.4 °F 71% 30.18 in 10.0 mi South 13.8 mph 18.4 mph N/A   Overcast
12:25 PM -0.4 °F -20.5 °F -9.4 °F 66% 30.17 in 10.0 mi SSW 16.1 mph - N/A   Overcast
12:45 PM -0.4 °F -20.5 °F -9.4 °F 66% 30.13 in 10.0 mi SSW 16.1 mph - N/A   Overcast
1:05 PM 1.4 °F -18.8 °F -7.6 °F 66% 30.12 in 10.0 mi SSW 17.3 mph - N/A   Overcast
1:45 PM 1.4 °F -17.6 °F -7.6 °F 66% 30.07 in 10.0 mi South 15.0 mph - N/A   Overcast
2:05 PM 3.2 °F -14.6 °F -5.8 °F 66% 30.06 in 10.0 mi South 13.8 mph - N/A   Overcast
2:25 PM 3.2 °F -15.9 °F -5.8 °F 66% 30.04 in 10.0 mi South 16.1 mph - N/A   Overcast
2:45 PM 3.2 °F -15.3 °F -4.0 °F 72% 30.01 in 10.0 mi SSE 15.0 mph - N/A   Overcast
3:05 PM 5.0 °F -14.7 °F -4.0 °F 66% 29.99 in 3.0 mi SSE 18.4 mph - N/A   Overcast
3:25 PM 5.0 °F -14.2 °F -2.2 °F 72% 29.99 in 5.0 mi SSE 17.3 mph - N/A   Overcast
3:45 PM 5.0 °F -13.6 °F -2.2 °F 72% 30.00 in 5.0 mi SSE 16.1 mph - N/A   Overcast
4:05 PM 5.0 °F -12.3 °F -2.2 °F 72% 30.02 in 1.2 mi South 13.8 mph 20.7 mph N/A   Overcast
4:25 PM 5.0 °F -13.0 °F -0.4 °F 78% 30.01 in 1.5 mi South 15.0 mph 23.0 mph N/A   Overcast
4:45 PM 5.0 °F -14.2 °F -0.4 °F 78% 30.00 in 2.0 mi South 17.3 mph 25.3 mph N/A   Overcast
5:05 PM 5.0 °F -13.6 °F -0.4 °F 78% 30.01 in 5.0 mi SSW 16.1 mph 23.0 mph N/A   Overcast
5:25 PM 5.0 °F -12.3 °F -0.4 °F 78% 30.01 in 10.0 mi SSW 13.8 mph - N/A   Overcast
5:45 PM 5.0 °F -11.6 °F -0.4 °F 78% 30.01 in 10.0 mi South 12.7 mph - N/A   Overcast
6:05 PM 5.0 °F -11.6 °F -0.4 °F 78% 30.02 in 10.0 mi SSW 12.7 mph - N/A   Overcast
6:25 PM 5.0 °F -11.6 °F -0.4 °F 78% 30.01 in 10.0 mi South 12.7 mph 17.3 mph N/A   Overcast
6:45 PM 6.8 °F -10.0 °F -0.4 °F 72% 30.01 in 10.0 mi SSW 13.8 mph - N/A   Overcast
7:05 PM 6.8 °F -7.8 °F -0.4 °F 72% 30.00 in 10.0 mi SSW 10.4 mph - N/A   Overcast
7:25 PM 6.8 °F -8.6 °F -0.4 °F 72% 30.00 in 10.0 mi SSW 11.5 mph - N/A   Overcast
7:45 PM 6.8 °F -9.3 °F -0.4 °F 72% 29.99 in 10.0 mi SSW 12.7 mph - N/A   Overcast
8:05 PM 6.8 °F -8.6 °F -0.4 °F 72% 29.99 in 10.0 mi SSW 11.5 mph - N/A   Overcast
8:25 PM 8.6 °F -7.0 °F -0.4 °F 67% 29.98 in 10.0 mi SW 12.7 mph - N/A   Overcast
8:45 PM 8.6 °F -7.7 °F 1.4 °F 73% 29.98 in 10.0 mi SW 13.8 mph - N/A   Overcast
9:05 PM 8.6 °F -6.3 °F 1.4 °F 73% 29.97 in 10.0 mi SW 11.5 mph - N/A   Overcast
9:25 PM 8.6 °F -5.5 °F 3.2 °F 79% 29.97 in 10.0 mi SW 10.4 mph - N/A   Overcast
9:45 PM 10.4 °F -4.8 °F 3.2 °F 73% 29.97 in 10.0 mi WSW 12.7 mph - N/A   Overcast
10:05 PM 10.4 °F -4.1 °F 3.2 °F 73% 29.97 in 10.0 mi WSW 11.5 mph - N/A   Overcast
10:25 PM 10.4 °F -4.1 °F 5.0 °F 79% 29.96 in 10.0 mi West 11.5 mph - N/A   Overcast
10:45 PM 10.4 °F -3.3 °F 5.0 °F 79% 29.96 in 7.0 mi West 10.4 mph - N/A   Overcast
11:05 PM 12.2 °F -1.8 °F 6.8 °F 79% 29.97 in 10.0 mi West 11.5 mph - N/A   Overcast
11:25 PM 12.2 °F -1.0 °F 8.6 °F 85% 29.96 in 5.0 mi West 10.4 mph - N/A   Overcast
11:45 PM 12.2 °F -3.7 °F 8.6 °F 85% 29.96 in 5.0 mi WNW 15.0 mph - N/A   Overcast